Location: Long Geng
(2.6167°N, 114.1333°E)
Time: 10:52:51
(UTC+00:00)

Ariane 44LP R/B - Pass Details

Date: 22 September 2021
Orbit: 475 x 17834 km, 3.6° (Epoch: 27 October)

Event Time Altitude Azimuth Distance (km) Brightness Sun altitude
Rises 09:11:13 0° 270° (W) 19,766 13.0 16.2°
Reaches altitude 10° 09:49:43 10° 269° (W) 21,567 14.9 6.6°
Maximum altitude 12:37:12 74° 185° (S) 4,037 7.4 -35.2°
Enters shadow 12:42:18 55° 120° (ESE) 3,308 6.7 -36.5°
